#timestamp,LO_Frequency,Hit,StdDev 
1600189215.8,286047005.4,N
1600189235.7,286047003.8,N
1600189255.5,286047004.0,N
1600189275.4,286047002.9,N
1600189295.2,286047005.9,N
1600189315.0,286047003.0,N
1600189315.9,286047003.0,N
1600189335.8,286047003.0,N
1600189355.6,286047004.3,N
1600189375.4,286046999.9,N
1600189395.3,286047000.0,N
1600189415.1,286047002.7,N
1600189435.9,286047002.0,N
1600189455.7,286047003.7,N
1600189475.5,286047007.2,Y
1600189495.4,286047001.1,P
1600189515.2,286046998.2,N
1600189535.1,286046998.6,N
1600189536.0,286046998.6,N
1600189555.8,286046995.4,N
1600189575.6,286046997.2,N
1600189625.5,286047001.2,E
1600189635.4,286047000.8,N
1600189655.3,286046998.9,P
1600189675.1,286046999.1,N
1600189676.0,286046999.1,N
1600189695.8,286046998.3,N
1600189715.7,286046999.3,N
1600189735.5,286046999.2,N
1600189755.4,286047001.1,N
1600189775.2,286047000.0,N
1600189795.0,286047002.7,Y
1600189795.9,286047002.7,P
1600189815.8,286046999.9,N
1600189835.6,286047000.7,N
1600189855.4,286047001.9,N
1600189875.3,286047001.8,N
1600189895.1,286047002.0,N
1600189915.9,286047001.0,N
1600189935.7,286047000.9,N
1600189955.5,286046998.7,N
1600189975.4,286047001.1,N
1600189995.2,286047001.0,N
1600190015.1,286046997.0,N
1600190016.0,286046997.0,N
1600190035.8,286046999.6,N
1600190055.6,286046998.4,N
1600190075.5,286046999.2,N
1600190095.3,286046997.5,N
1600190115.2,286046997.2,N
1600190135.9,286046999.5,N
1600190155.7,286046996.6,N
1600190175.6,286046997.3,N
1600190195.4,286046999.0,N
1600190215.2,286046996.6,N
1600190235.1,286046996.9,N
1600190236.0,286046996.9,N
1600190255.8,286046999.1,N
1600190275.7,286047001.1,N
1600190295.5,286047002.0,N
1600190315.3,286047000.8,N
1600190335.2,286047000.8,N
1600190355.0,286047000.2,N
1600190355.9,286047000.2,N
1600190375.8,286046999.7,N
1600190395.6,286047001.5,N
1600190415.4,286047003.6,N
1600190435.3,286047003.4,N
1600190455.1,286047003.2,N
1600190475.8,286047003.0,N
1600190495.7,286047003.3,N
1600190515.5,286047005.6,N
1600190535.4,286047007.0,N
1600190555.2,286047007.6,N
1600190575.0,286047003.5,N
1600190575.9,286047003.5,N
1600190595.8,286047002.9,N
1600190615.6,286047005.4,N
1600190635.4,286047003.4,N
1600190655.3,286047005.6,N
1600190675.1,286047005.5,N
1600190695.9,286047003.5,N
1600190715.7,286047003.6,N
1600190735.5,286047004.1,N
1600190755.4,286047001.7,N
1600190775.2,286047002.0,N
1600190795.1,286047000.2,N
1600190796.0,286047000.2,N
1600190815.8,286046999.9,N
1600190835.6,286046999.8,N
1600190855.5,286046999.7,N
1600190875.3,286047000.5,N
1600190895.1,286047000.0,N
1600190915.9,286047002.1,N
1600190935.7,286047000.0,N
1600190955.6,286046999.8,N
1600190975.4,286047002.9,N
1600190995.2,286047003.1,N
1600191015.1,286047003.4,N
1600191016.0,286047003.4,N
1600191035.8,286047004.2,N
1600191055.7,286046999.9,N
1600191075.5,286046999.1,N
1600191095.3,286046999.2,N
1600191115.2,286046998.9,N
1600191135.9,286046997.1,N
1600191155.7,286046997.1,N
1600191175.6,286046998.5,N
1600191195.4,286047000.9,N
1600191215.3,286047001.2,N
1600191235.1,286047000.7,N
1600191236.0,286047000.7,N
1600191255.8,286047000.4,N
1600191275.7,286047002.8,N
1600191295.5,286047000.9,N
1600191315.3,286047003.7,N
1600191335.2,286047007.5,Y
1600191355.0,286047005.1,P
1600191355.9,286047005.1,N
1600191375.8,286047003.0,N
1600191395.6,286047005.4,N
1600191415.4,286047005.8,Y
1600191435.3,286046998.2,P
1600191455.1,286046999.1,N
1600191475.9,286046997.8,N
1600191495.7,286046997.7,N
1600191515.5,286046997.9,N
1600191535.4,286046997.6,N
1600191555.2,286046994.9,N
1600191575.0,286046995.7,N
1600191575.9,286046995.7,N
1600191595.8,286046994.5,N
1600191615.6,286046993.9,N
1600191635.5,286046994.0,N
1600191655.3,286046993.3,N
1600191675.1,286046996.1,N
1600191695.9,286046995.6,N
1600191715.7,286046995.0,N
1600191735.5,286046995.4,N
1600191755.4,286046993.5,N
1600191775.2,286046994.8,N
1600191795.1,286046993.4,N
1600191796.0,286046993.4,N
1600191815.8,286046995.7,N
1600191835.6,286046996.3,N
1600191855.5,286046993.8,N
1600191875.3,286046993.4,N
1600191895.1,286046994.5,N
1600191915.9,286046992.1,Y
1600191935.7,286046997.4,P
1600191955.6,286046994.9,P
1600191975.4,286046995.2,P
1600191995.2,286046995.2,Y
1600192015.1,286046999.4,P
1600192016.0,286046999.4,N
1600192035.8,286046998.4,N
1600192055.7,286047000.8,N
1600192075.5,286047000.2,N
1600192095.3,286047002.2,N
1600192115.2,286047004.0,N
1600192135.0,286047002.6,N
1600192135.9,286047002.6,N
1600192155.8,286047001.7,N
1600192175.6,286047001.4,N
1600192195.4,286046999.8,N
1600192215.3,286047000.2,N
1600192235.1,286047002.8,N
1600192255.8,286047002.3,N
1600192275.7,286047004.2,N
1600192295.5,286047002.4,N
1600192315.4,286047000.1,N
1600192335.2,286047002.7,N
1600192355.0,286047001.8,N
1600192355.9,286047001.8,N
1600192375.8,286047000.2,N
1600192395.6,286047002.3,N
1600192415.4,286047004.3,N
1600192435.3,286047004.4,N
1600192455.1,286047005.8,N
1600192475.9,286047001.6,N
1600192495.7,286046999.7,N
1600192515.5,286047002.6,N
1600192535.4,286047004.0,N
1600192555.2,286047004.0,N
1600192575.1,286047001.4,N
1600192576.0,286047001.4,N
1600192595.8,286047001.5,N
1600192615.6,286047003.1,N
1600192635.5,286047004.1,N
1600192655.3,286047003.3,N
1600192675.1,286047003.8,N
1600192695.9,286047003.8,N
1600192715.7,286047003.9,N
1600192735.6,286047002.2,N
1600192755.4,286047000.1,N
1600192775.2,286047000.9,N
1600192795.1,286047000.5,N
1600192796.0,286047000.5,N
